Location: DARK SKY Beskydy - Park tmavé oblohy, www.darkskybeskydy.cz
(49.4926°N, 18.5016°E)
Time: 11:42:41
(UTC+02:00)

A-11 Canister half - Pass Details

Date: 24 February 2024
Orbit: 1513 x 1687 km, 47.2° (Epoch: 12 April)

Event Time Altitude Azimuth Distance (km) Brightness Sun altitude
Rises 03:52:08 0° 254° (WSW) 4,933 - -27.7°
Reaches altitude 10° 03:55:19 10° 253° (WSW) 3,937 - -27.2°
Exits shadow 04:01:35 44° 245° (WSW) 2,180 9.3 -26.3°
Maximum altitude 04:05:25 77° 170° (S) 1,690 9.1 -25.7°
Drops below altitude 10° 04:15:12 10° 87° (E) 3,826 12.1 -24.1°
Sets 04:18:15 0° 86° (E) 4,789 13.0 -23.6°
